Moorhead, MN

11:39 AM CDT on June 29, 2017 (GMT -0500)
Moorhead Municipal

Weather History for KJKJ - January, 2013

Change the Weather History Date:

Sunday, January 6, 2013

  Actual Average (KFAR) Record (KFAR)
Temperature  
Mean Temperature 10 °F -  
Max Temperature 17 °F 13 °F 44 °F (2012)
Min Temperature 3 °F -4 °F -43 °F (1887)
Degree Days  
Heating Degree Days 55    
Moisture  
Dew Point 10 °F    
Average Humidity 94    
Maximum Humidity 100    
Minimum Humidity 86    
Precipitation  
Precipitation 0.00 in - - ()
Sea Level Pressure  
Sea Level Pressure 30.06 in    
Wind  
Wind Speed 6 mph (South)    
Max Wind Speed 21 mph    
Max Gust Speed 26 mph    
Visibility 10 miles    
Events      
Averages and records for this station are not official NWS values.
T = Trace of Precipitation, MM = Missing Value Source: NWS Daily Summary

Daily Weather History Graph

Daily Weather History Graph

Search for Another Location

Airport or City:

Trip Planner

Search our weather history database for the weather conditions in past years. The results will help you decide how hot, cold, wet, or windy it might be!

Date:

Astronomy

Jan. 06, 2013 Rise Set
Actual Time 8:11 AM CST 4:54 PM CST
Civil Twilight 7:36 AM CST 5:29 PM CST
Nautical Twilight 6:58 AM CST 6:07 PM CST
Astronomical Twilight 6:21 AM CST 6:44 PM CST
Moon 2:18 AM CST (1/6) 12:29 PM CST (1/6)
Length of Visible Light 9h 52m
Length of Day
8h 43m
Waning Crescent, 33% of the Moon is Illuminated
Jan 6
Waning Crescent
Jan 11
New
Jan 18
First Quarter
Jan 26
Full
Feb 3
Last Quarter

Hourly Weather History & Observations

Time (CST) Temp. Windchill Dew Point Humidity Pressure Visibility Wind Dir Wind Speed Gust Speed Precip Events Conditions
12:15 AM 12.2 °F 6.1 °F 10.4 °F 92% 30.12 in 10.0 mi WSW 3.5 mph - N/A   Overcast
12:35 AM 12.2 °F 6.1 °F 10.4 °F 92% 30.12 in 10.0 mi SW 3.5 mph - N/A   Overcast
12:54 AM 12.2 °F 6.1 °F 12.2 °F 100% 30.10 in 10.0 mi SSW 3.5 mph - N/A   Overcast
1:15 AM 14.0 °F 8.2 °F 12.2 °F 93% 30.10 in 10.0 mi South 3.5 mph - N/A   Overcast
1:34 AM 14.0 °F - 12.2 °F 93% 30.10 in 10.0 mi Calm Calm - N/A   Overcast
1:55 AM 15.8 °F - 14.0 °F 93% 30.11 in 10.0 mi Calm Calm - N/A   Overcast
2:15 AM 15.8 °F - 14.0 °F 93% 30.11 in 10.0 mi Calm Calm - N/A   Overcast
2:34 AM 15.8 °F 10.2 °F 14.0 °F 93% 30.11 in 10.0 mi South 3.5 mph - N/A   Mostly Cloudy
2:55 AM 14.0 °F 6.5 °F 12.2 °F 93% 30.11 in 10.0 mi South 4.6 mph - N/A   Mostly Cloudy
3:34 AM 12.2 °F 4.3 °F 12.2 °F 100% 30.11 in 10.0 mi SSW 4.6 mph - N/A   Clear
3:55 AM 10.4 °F - 10.4 °F 100% 30.13 in 10.0 mi Calm Calm - N/A   Clear
4:14 AM 8.6 °F 0.1 °F 8.6 °F 100% 30.13 in 10.0 mi SE 4.6 mph - N/A   Clear
4:35 AM 8.6 °F -1.3 °F 6.8 °F 92% 30.13 in 10.0 mi SSE 5.8 mph - N/A   Clear
4:55 AM 6.8 °F -4.8 °F 6.8 °F 100% 30.12 in 10.0 mi South 6.9 mph - N/A   Clear
5:14 AM 8.6 °F 0.1 °F 8.6 °F 100% 30.13 in 10.0 mi South 4.6 mph - N/A   Clear
5:35 AM 8.6 °F 2.0 °F 8.6 °F 100% 30.14 in 10.0 mi SSW 3.5 mph - N/A   Clear
5:55 AM 8.6 °F 0.1 °F 8.6 °F 100% 30.13 in 10.0 mi SSW 4.6 mph - N/A   Clear
6:14 AM 8.6 °F -1.3 °F 6.8 °F 92% 30.14 in 10.0 mi SW 5.8 mph - N/A   Clear
6:35 AM 8.6 °F 2.0 °F 8.6 °F 100% 30.15 in 7.0 mi WSW 3.5 mph - N/A   Clear
6:54 AM 6.8 °F - 5.0 °F 92% 30.14 in 10.0 mi Calm Calm - N/A   Clear
7:15 AM 5.0 °F - 5.0 °F 100% 30.15 in 10.0 mi Calm Calm - N/A   Clear
7:35 AM 3.2 °F -4.2 °F 3.2 °F 100% 30.16 in 10.0 mi South 3.5 mph - N/A   Clear
7:54 AM 3.2 °F -4.2 °F 3.2 °F 100% 30.16 in 10.0 mi South 3.5 mph - N/A   Clear
8:15 AM 3.2 °F -4.2 °F 1.4 °F 92% 30.16 in 7.0 mi SSW 3.5 mph - N/A   Clear
8:35 AM 3.2 °F - 1.4 °F 92% 30.16 in 7.0 mi Calm Calm - N/A   Clear
8:54 AM 3.2 °F -4.2 °F 1.4 °F 92% 30.17 in 7.0 mi SSE 3.5 mph - N/A   Clear
9:15 AM 3.2 °F -4.2 °F 1.4 °F 92% 30.17 in 10.0 mi SSE 3.5 mph - N/A   Clear
9:34 AM 5.0 °F - 3.2 °F 92% 30.18 in 10.0 mi Calm Calm - N/A   Clear
9:55 AM 5.0 °F -2.1 °F 3.2 °F 92% 30.18 in 10.0 mi South 3.5 mph - N/A   Clear
10:15 AM 6.8 °F -3.5 °F 6.8 °F 100% 30.18 in 10.0 mi SSE 5.8 mph - N/A   Clear
10:34 AM 8.6 °F 0.1 °F 6.8 °F 92% 30.17 in 10.0 mi South 4.6 mph - N/A   Clear
10:55 AM 8.6 °F -1.3 °F 8.6 °F 100% 30.18 in 10.0 mi South 5.8 mph - N/A   Clear
11:15 AM 10.4 °F 0.8 °F 8.6 °F 92% 30.17 in 10.0 mi South 5.8 mph - N/A   Clear
11:35 AM 10.4 °F 0.8 °F 10.4 °F 100% 30.16 in 10.0 mi South 5.8 mph - N/A   Clear
11:55 AM 12.2 °F 0.7 °F 10.4 °F 92% 30.14 in 10.0 mi South 8.1 mph - N/A   Clear
12:15 PM 12.2 °F -0.2 °F 10.4 °F 92% 30.14 in 10.0 mi South 9.2 mph - N/A   Clear
12:35 PM 12.2 °F -2.5 °F 12.2 °F 100% 30.12 in 10.0 mi South 12.7 mph - N/A   Clear
12:55 PM 12.2 °F -0.2 °F 12.2 °F 100% 30.12 in 7.0 mi South 9.2 mph - N/A   Clear
1:14 PM 14.0 °F 1.2 °F 12.2 °F 93% 30.11 in 10.0 mi South 10.4 mph 16.1 mph N/A   Clear
1:35 PM 14.0 °F -0.8 °F 12.2 °F 93% 30.10 in 10.0 mi South 13.8 mph - N/A   Clear
1:55 PM 14.0 °F 2.0 °F 12.2 °F 93% 30.10 in 10.0 mi South 9.2 mph - N/A   Clear
2:14 PM 14.0 °F 2.0 °F 10.4 °F 86% 30.10 in 10.0 mi South 9.2 mph - N/A   Clear
2:35 PM 12.2 °F -0.2 °F 10.4 °F 92% 30.09 in 10.0 mi South 9.2 mph - N/A   Clear
2:55 PM 12.2 °F -1.0 °F 10.4 °F 92% 30.08 in 10.0 mi South 10.4 mph - N/A   Clear
3:14 PM 12.2 °F -3.1 °F 10.4 °F 92% 30.07 in 10.0 mi South 13.8 mph - N/A   Clear
3:35 PM 12.2 °F -1.8 °F 10.4 °F 92% 30.06 in 10.0 mi South 11.5 mph - N/A   Clear
3:55 PM 12.2 °F -1.0 °F 10.4 °F 92% 30.06 in 10.0 mi South 10.4 mph - N/A   Clear
4:14 PM 14.0 °F 0.5 °F 12.2 °F 93% 30.06 in 10.0 mi South 11.5 mph 16.1 mph N/A   Clear
4:35 PM 12.2 °F -1.0 °F 12.2 °F 100% 30.06 in 10.0 mi South 10.4 mph - N/A   Clear
4:55 PM 12.2 °F -1.8 °F 10.4 °F 92% 30.04 in 10.0 mi SSE 11.5 mph - N/A   Clear
5:14 PM 12.2 °F -1.8 °F 10.4 °F 92% 30.04 in 10.0 mi South 11.5 mph - N/A   Clear
5:35 PM 12.2 °F -4.3 °F 10.4 °F 92% 30.01 in 10.0 mi SSE 16.1 mph - N/A   Clear
6:14 PM 12.2 °F -4.3 °F 10.4 °F 92% 29.97 in 10.0 mi South 16.1 mph - N/A   Clear
6:35 PM 12.2 °F -4.8 °F 10.4 °F 92% 29.96 in 10.0 mi SSE 17.3 mph - N/A   Clear
6:55 PM 12.2 °F -4.8 °F 10.4 °F 92% 29.93 in 10.0 mi SSE 17.3 mph 24.2 mph N/A   Clear
7:14 PM 12.2 °F -4.8 °F 12.2 °F 100% 29.90 in 10.0 mi SSE 17.3 mph 23.0 mph N/A   Clear
7:35 PM 14.0 °F -3.9 °F 12.2 °F 93% 29.89 in 10.0 mi South 20.7 mph - N/A   Clear
7:55 PM 15.8 °F -0.6 °F 12.2 °F 86% 29.87 in 10.0 mi South 18.4 mph - N/A   Clear
8:14 PM 15.8 °F 0.9 °F 12.2 °F 86% 29.86 in 10.0 mi South 15.0 mph - N/A   Clear
8:35 PM 15.8 °F -0.6 °F 14.0 °F 93% 29.84 in 10.0 mi South 18.4 mph - N/A   Clear
9:14 PM 15.8 °F -0.2 °F 14.0 °F 93% 29.81 in 10.0 mi South 17.3 mph - N/A   Clear
9:35 PM 15.8 °F 0.9 °F 14.0 °F 93% 29.81 in 10.0 mi South 15.0 mph 21.9 mph N/A   Clear
9:54 PM 15.8 °F -0.2 °F 14.0 °F 93% 29.79 in 10.0 mi South 17.3 mph 26.5 mph N/A   Clear
10:15 PM 15.8 °F 2.1 °F 14.0 °F 93% 29.80 in 10.0 mi South 12.7 mph - N/A   Clear
10:35 PM 17.6 °F 7.3 °F 15.8 °F 93% 29.81 in 10.0 mi South 8.1 mph - N/A   Clear
10:54 PM 17.6 °F 4.3 °F 15.8 °F 93% 29.80 in 10.0 mi South 12.7 mph 18.4 mph N/A   Clear
11:35 PM 17.6 °F 3.7 °F 15.8 °F 93% 29.78 in 10.0 mi South 13.8 mph 18.4 mph N/A   Clear
11:54 PM 17.6 °F 5.7 °F 15.8 °F 93% 29.78 in 10.0 mi South 10.4 mph - N/A   Clear